Regional Weather Roundup
Issued by NWS

Home | Current Version | Previous Version | Graphics & Text | Print | Product List | Glossary On
Versions: 1 2 3 4 5 6 7 8 9 10 11 12 13 14 15 16 17 18 19 20 21 22 23 24 25 26 27 28 29 30 31 32 33 34 35 36 37 38 39 40 41 42 43 44 45 46 47 48 49 50
000
ASUS43 KTOP 051708
RWRKS

WEATHER ROUNDUP FOR KANSAS
NATIONAL WEATHER SERVICE GOODLAND KS
1200 PM CDT SUN JUL 05 2015

NOTE:  "FAIR" INDICATES FEW OR NO CLOUDS BELOW 12,000 FEET WITH NO
SIGNIFICANT WEATHER AND/OR OBSTRUCTIONS TO VISIBILITY.

KSZ001>006-013>018-027>032-041>047-051800-
NORTHWEST KANSAS

CITY           SKY/WX    TMP DP  RH WIND       PRES   REMARKS
GOODLAND       SUNNY     91  59  33 S12       29.87F
HAYS           SUNNY     93  66  40 S23G32    29.85S HX  96
HILL CITY      SUNNY     95  64  35 S15G24    29.83F HX  97
RUSSELL        LGT RAIN  91  67  44 S24G30    29.85S
$$

KSZ061>065-074>080-084>089-051800-
SOUTHWEST KANSAS

CITY           SKY/WX    TMP DP  RH WIND       PRES   REMARKS
DODGE CITY     SUNNY     90  62  39 S28       29.92S
ELKHART          N/A     91  58  32 S18         N/A
GARDEN CITY    SUNNY     90  65  43 S22       29.90S
GREAT BEND     MOSUNNY   90  66  45 S23       29.89S
LIBERAL        SUNNY     90  64  43 S23G29    29.97S
PRATT          MOSUNNY   91  61  35 S21       29.93S
$$

KSZ066>073-081>083-090>101-051800-
SOUTHEAST KANSAS

CITY           SKY/WX    TMP DP  RH WIND       PRES   REMARKS
CHANUTE        PTSUNNY   85  72  65 S8        29.99F
COFFEYVILLE    PTSUNNY   86  73  65 S8        29.98F
HUTCHINSON     SUNNY     91  69  48 S18       29.92F HX  96
MEDICINE LODGE   N/A     93  65  39 S17       29.91F HX  95
NEWTON         SUNNY     90  68  48 S15G22    29.97R
PARSONS        PTSUNNY   84  74  71 S8        30.00F
WICHITA INTL   MOSUNNY   90  70  51 S16       29.93F HX  95
WICHITA JABRA  SUNNY     87  71  58 S14G22    29.95S
WICHITA MCCONL SUNNY     88  71  57 SE16G22   29.95F
WINFIELD       MOSUNNY   87  72  60 SE10      29.97F
$$

KSZ007>012-019>026-033>040-048>060-102>105-051800-
NORTHEAST KANSAS

CITY           SKY/WX    TMP DP  RH WIND       PRES   REMARKS
CONCORDIA      SUNNY     89  70  53 S18G26    29.88S
EMPORIA        CLOUDY    76  67  73 NE6       29.98R THUNDER
LAWRENCE       CLOUDY    85  73  67 S12       29.97R
MANHATTAN      MOSUNNY   89  72  56 S16G24    29.91F HX  96
MARYSVILLE     PTSUNNY   84  73  70 S15       29.90F
OLATHE IND     CLOUDY    83  72  69 S16G23    29.99S
OLATHE EXE     CLOUDY    81  73  76 S9        29.98S
SALINA         SUNNY     93  69  45 S14G24    29.89S HX  98
TOPEKA BILLARD PTSUNNY   85  73  67 S15G22    29.95S
TOPEKA FORBES  PTSUNNY   87  72  60 S17       29.95S
$$



USA.gov is the U.S. government's official web portal to all federal, state and local government web resources and services.